Branson, MO

7:54 AM CDT on June 28, 2017 (GMT -0500)
Branson

Weather History for KBBG - July, 2013

Change the Weather History Date:

Saturday, July 13, 2013

  Actual Average (KHRO) Record (KHRO)
Temperature  
Mean Temperature 74 °F -  
Max Temperature 87 °F 89 °F 109 °F (1954)
Min Temperature 60 °F 69 °F 52 °F (1897)
Cooling Degree Days 8    
Growing Degree Days 24 (Base 50)    
Moisture  
Dew Point 53 °F    
Average Humidity 53    
Maximum Humidity 77    
Minimum Humidity 29    
Precipitation  
Precipitation 0.00 in - - ()
Sea Level Pressure  
Sea Level Pressure 30.07 in    
Wind  
Wind Speed 6 mph (ESE)    
Max Wind Speed 12 mph    
Max Gust Speed -    
Visibility 10 miles    
Events      
Averages and records for this station are not official NWS values.
T = Trace of Precipitation, MM = Missing Value Source: NWS Daily Summary

Daily Weather History Graph

Daily Weather History Graph

Search for Another Location

Airport or City:

Trip Planner

Search our weather history database for the weather conditions in past years. The results will help you decide how hot, cold, wet, or windy it might be!

Date:

Astronomy

Jul. 13, 2013 Rise Set
Actual Time 6:05 AM CDT 8:31 PM CDT
Civil Twilight 5:35 AM CDT 9:01 PM CDT
Nautical Twilight 4:58 AM CDT 9:38 PM CDT
Astronomical Twilight 4:17 AM CDT 10:18 PM CDT
Moon 11:11 AM CDT (7/13) 11:23 PM CDT (7/13)
Length of Visible Light 15h 26m
Length of Day
14h 26m
Waxing Crescent, 26% of the Moon is Illuminated
Jul 13
Waxing Crescent
Jul 15
First Quarter
Jul 22
Full
Jul 29
Last Quarter
Aug 6
New

Hourly Weather History & Observations

Time (CDT) Temp. Heat Index Dew Point Humidity Pressure Visibility Wind Dir Wind Speed Gust Speed Precip Events Conditions
12:15 AM 69.8 °F - 48.2 °F 46% 30.07 in 10.0 mi ESE 4.6 mph - N/A   Clear
12:35 AM 69.8 °F - 50.0 °F 49% 30.07 in 10.0 mi ESE 6.9 mph - N/A   Clear
12:55 AM 69.8 °F - 50.0 °F 49% 30.07 in 10.0 mi SE 6.9 mph - N/A   Clear
1:15 AM 69.8 °F - 50.0 °F 49% 30.07 in 10.0 mi SE 10.4 mph - N/A   Clear
1:35 AM 69.8 °F - 50.0 °F 49% 30.07 in 10.0 mi SE 9.2 mph - N/A   Clear
1:55 AM 68.0 °F - 51.8 °F 56% 30.07 in 10.0 mi SE 9.2 mph - N/A   Clear
2:15 AM 68.0 °F - 51.8 °F 56% 30.07 in 10.0 mi SE 8.1 mph - N/A   Clear
2:35 AM 68.0 °F - 53.6 °F 60% 30.07 in 10.0 mi SE 9.2 mph - N/A   Clear
2:55 AM 68.0 °F - 53.6 °F 60% 30.07 in 10.0 mi SE 8.1 mph - N/A   Clear
3:15 AM 66.2 °F - 53.6 °F 64% 30.08 in 10.0 mi SE 8.1 mph - N/A   Clear
3:35 AM 66.2 °F - 53.6 °F 64% 30.08 in 10.0 mi SE 8.1 mph - N/A   Clear
3:55 AM 66.2 °F - 53.6 °F 64% 30.08 in 10.0 mi SE 6.9 mph - N/A   Clear
4:15 AM 66.2 °F - 53.6 °F 64% 30.08 in 10.0 mi SE 4.6 mph - N/A   Clear
4:35 AM 64.4 °F - 53.6 °F 68% 30.08 in 10.0 mi SSE 3.5 mph - N/A   Clear
4:55 AM 64.4 °F - 53.6 °F 68% 30.08 in 10.0 mi Calm Calm - N/A   Clear
5:15 AM 62.6 °F - 53.6 °F 72% 30.09 in 10.0 mi Calm Calm - N/A   Clear
5:35 AM 62.6 °F - 53.6 °F 72% 30.08 in 10.0 mi Calm Calm - N/A   Clear
5:55 AM 62.6 °F - 53.6 °F 72% 30.09 in 10.0 mi Calm Calm - N/A   Clear
6:15 AM 60.8 °F - 53.6 °F 77% 30.09 in 10.0 mi Calm Calm - N/A   Clear
6:35 AM 62.6 °F - 53.6 °F 72% 30.09 in 10.0 mi Calm Calm - N/A   Clear
6:45 AM 60.8 °F - 53.6 °F 77% 30.09 in 10.0 mi Calm Calm - N/A   Partly Cloudy
7:45 AM 68.0 °F - 55.4 °F 64% 30.09 in 10.0 mi Calm Calm - N/A   Partly Cloudy
8:45 AM 73.4 °F - 55.4 °F 53% 30.11 in 10.0 mi SE 8.1 mph - N/A   Partly Cloudy
9:50 AM 77.0 °F - 55.4 °F 47% 30.11 in 10.0 mi SE 6.9 mph - N/A   Scattered Clouds
10:45 AM 78.8 °F - 55.4 °F 44% 30.10 in 10.0 mi SSE 8.1 mph - N/A   Scattered Clouds
11:58 AM 82.4 °F 81.4 °F 53.6 °F 37% 30.09 in 10.0 mi SSE 5.8 mph - N/A   Scattered Clouds
12:45 PM 84.2 °F - 51.8 °F 33% 30.08 in 10.0 mi East 5.8 mph - N/A   Mostly Cloudy
1:45 PM 84.2 °F - 48.2 °F 29% 30.07 in 10.0 mi ENE 4.6 mph - N/A   Overcast
2:50 PM 86.0 °F - 50.0 °F 29% 30.05 in 10.0 mi East 5.8 mph - N/A   Mostly Cloudy
3:46 PM 87.8 °F - 51.8 °F 29% 30.04 in 10.0 mi East 5.8 mph - N/A   Overcast
4:55 PM 84.2 °F - 51.8 °F 33% 30.04 in 10.0 mi East 9.2 mph - N/A   Overcast
5:48 PM 82.4 °F - 51.8 °F 35% 30.04 in 10.0 mi East 11.5 mph - N/A   Overcast
6:46 PM 80.6 °F 80.3 °F 53.6 °F 39% 30.03 in 10.0 mi East 5.8 mph - N/A   Overcast
7:47 PM 77.0 °F - 53.6 °F 44% 30.02 in 10.0 mi ESE 4.6 mph - N/A   Mostly Cloudy
8:46 PM 75.2 °F - 55.4 °F 50% 30.02 in 10.0 mi Calm Calm - N/A   Mostly Cloudy
8:55 PM 77.0 °F - 53.6 °F 44% 30.03 in 10.0 mi East 4.6 mph - N/A   Clear
9:15 PM 75.2 °F - 53.6 °F 47% 30.01 in 10.0 mi South 3.5 mph - N/A   Clear
9:35 PM 75.2 °F - 53.6 °F 47% 30.02 in 10.0 mi ENE 3.5 mph - N/A   Clear
9:55 PM 75.2 °F - 53.6 °F 47% 30.04 in 10.0 mi East 3.5 mph - N/A   Clear
10:15 PM 73.4 °F - 55.4 °F 53% 30.04 in 10.0 mi East 4.6 mph - N/A   Clear
10:35 PM 75.2 °F - 55.4 °F 50% 30.04 in 10.0 mi East 4.6 mph - N/A   Clear
10:55 PM 75.2 °F - 55.4 °F 50% 30.05 in 10.0 mi East 8.1 mph - N/A   Clear
11:15 PM 73.4 °F - 57.2 °F 57% 30.06 in 10.0 mi East 8.1 mph - N/A   Clear
11:35 PM 73.4 °F - 57.2 °F 57% 30.06 in 10.0 mi ESE 10.4 mph - N/A   Clear
11:55 PM 71.6 °F - 57.2 °F 60% 30.06 in 10.0 mi SE 6.9 mph - N/A   Clear